Wind_Speed
3 2 3 6 9 10 8 3 3 3 3 2 3 2 1 1 3 3 4 2 2 1 2 2 1 0 0 1 4 4 4 5 4 3 2 4 5 9 14 10 8 16 18 18 18 23 27 25 25 24 24 22 21 21 21 20 19 17 16 15 14 13 12 12 11 11 11 11 10 9 9 9 9 9 9 8 8 7 7 6 6 6 5 4 4 5 6 7 6 5 3 2 2 4 6 6 6
4 3 3 5 7 5 3 3 4 3 5 3 3 2 0 3 4 4 4 3 2 3 3 2 1 1 2 1 2 0 3 6 4 3 2 4 7 10 13 10 10 15 17 18 18 23 27 26 26 24 24 23 22 22 21 20 20 19 17 16 15 14 13 12 12 13 12 11 10 9 9 8 8 8 7 7 7 7 7 6 7 7 4 4 5 5 6 6 5 4 2 2 2 4 5 4 3
5 4 6 6 5 1 1 3 4 2 4 3 2 3 2 4 4 4 5 5 6 5 2 0 1 0 3 4 2 2 3 3 3 2 2 6 6 7 11 11 13 14 15 17 17 22 28 27 26 25 25 24 23 23 23 22 21 20 18 16 16 15 13 12 13 14 13 12 10 10 9 8 8 8 7 7 6 6 6 6 7 7 5 5 5 6 6 5 5 4 1 2 3 3 3 2 2
5 4 7 6 3 2 3 3 2 4 2 2 0 4 2 4 2 1 3 5 6 4 2 1 1 1 3 1 2 2 3 2 3 4 4 7 5 5 9 12 15 14 15 16 16 20 27 28 27 25 24 25 24 23 23 22 22 21 19 18 17 16 15 13 13 14 13 12 11 10 10 9 9 8 8 7 7 6 6 7 8 7 6 6 6 6 6 5 4 2 1 2 2 1 1 1 2
6 5 4 2 3 1 2 2 1 4 0 3 3 3 1 4 3 3 3 1 3 4 3 2 1 3 1 3 2 2 3 1 2 8 8 9 7 5 7 13 16 15 15 15 15 18 26 28 27 26 24 24 24 24 23 22 22 21 20 19 18 17 16 15 14 15 13 12 11 10 10 10 10 9 9 8 8 7 6 7 8 7 7 6 6 6 6 4 2 1 1 1 1 2 2 1 3
9 7 3 1 1 1 3 2 2 1 4 4 4 3 2 4 3 3 5 3 2 3 4 2 1 1 1 4 2 3 3 2 4 7 9 10 8 7 8 14 17 16 16 14 14 16 22 28 28 27 25 24 23 23 23 22 22 21 20 19 19 18 18 17 15 15 14 13 12 11 11 11 11 10 10 10 10 9 7 7 8 9 8 7 7 6 5 4 2 2 1 0 1 4 3 2 3
9 7 2 2 2 1 4 1 2 3 5 4 6 3 3 3 4 4 5 2 3 3 3 0 2 2 2 3 2 2 1 3 5 6 7 8 7 7 9 14 17 17 17 13 14 14 19 26 28 27 25 25 24 23 23 22 21 20 19 19 19 19 19 18 17 16 15 14 13 12 12 12 12 12 11 12 11 10 8 7 8 9 9 8 7 6 4 3 2 1 0 0 1 3 2 2 3
6 2 1 4 2 2 3 0 3 3 3 2 5 4 5 4 4 4 4 1 0 1 1 3 3 4 4 3 1 4 1 4 4 7 8 7 8 8 9 14 16 17 17 14 13 13 16 22 27 28 26 25 24 24 23 23 21 19 19 19 19 19 19 19 17 17 15 15 14 13 12 12 12 13 12 12 11 10 10 9 9 8 8 8 7 6 5 2 2 2 2 2 2 2 1 3 4
3 1 2 3 2 3 2 2 3 2 2 2 2 4 5 4 4 3 2 3 1 2 2 5 4 3 5 5 2 5 1 6 6 8 8 7 8 7 9 13 16 17 17 16 14 13 14 18 24 27 27 26 25 25 24 24 23 21 19 18 18 18 18 18 18 17 16 16 15 14 13 13 13 13 13 13 11 11 12 11 10 9 8 8 8 8 6 4 4 5 3 3 3 2 2 4 6
3 1 2 3 3 3 4 2 3 3 3 1 2 3 4 4 3 3 0 3 2 1 2 3 4 1 3 4 4 4 2 7 8 8 8 8 8 7 8 11 15 16 15 17 16 14 14 15 19 24 27 27 26 26 25 25 24 23 21 19 18 18 17 18 18 17 17 17 16 15 14 14 14 14 15 15 14 12 12 11 10 10 9 8 8 7 6 6 5 5 3 3 4 2 2 5 6
3 2 2 4 4 2 2 3 4 4 5 2 3 2 2 4 3 2 2 3 4 3 2 1 2 2 1 3 5 2 5 9 9 9 9 9 8 7 8 10 14 15 15 16 18 17 15 16 17 21 25 27 27 27 26 26 24 24 23 21 20 19 18 17 17 17 17 17 17 16 16 15 15 16 17 16 15 13 13 11 10 11 9 8 8 6 5 6 5 4 5 5 4 2 4 6 7
3 4 4 4 1 1 2 3 6 6 6 3 2 5 1 4 3 2 3 3 5 6 2 1 0 1 1 3 4 1 7 10 10 8 8 9 8 7 9 12 14 15 15 15 18 19 18 17 18 20 22 25 27 27 27 26 25 25 24 23 21 20 19 18 18 17 17 17 17 17 16 16 16 18 18 17 16 14 14 12 11 11 10 9 9 7 7 8 7 6 8 8 5 3 5 6 7
2 1 5 1 2 1 2 2 4 4 5 2 1 4 1 4 2 2 2 3 5 5 1 4 1 2 1 4 3 1 5 10 10 8 8 8 8 7 8 12 15 16 16 17 19 20 20 19 20 21 22 23 25 27 27 27 26 26 25 25 23 22 21 20 19 18 18 18 18 17 17 17 17 18 18 17 16 16 15 13 12 12 10 9 8 8 9 9 8 8 10 9 6 5 6 7 7
1 0 4 0 2 2 2 2 2 2 3 4 2 3 1 1 3 3 3 4 6 2 3 5 2 2 2 3 4 3 5 11 11 8 8 8 8 8 8 10 13 16 17 18 20 20 21 21 21 22 23 24 25 26 27 28 27 27 26 26 25 24 23 23 21 20 19 19 19 18 18 18 17 19 18 17 16 16 15 13 13 11 9 10 9 9 11 10 10 10 11 9 7 6 6 6 6
1 1 4 1 3 3 1 2 2 3 2 5 3 1 1 1 3 3 1 2 6 5 1 3 2 2 3 2 4 6 6 12 12 9 9 8 6 8 10 10 11 15 17 19 21 21 22 22 22 23 24 25 26 27 27 28 28 28 27 27 26 25 24 24 22 21 21 20 19 19 19 18 18 19 18 18 16 15 14 13 12 9 8 11 11 11 11 10 10 11 12 9 8 7 7 6 6
2 3 4 2 2 2 1 1 1 3 2 5 3 1 3 4 1 2 3 4 4 5 1 3 2 2 5 4 10 12 6 10 12 11 10 9 8 9 11 11 11 13 16 19 21 23 23 23 23 23 25 26 27 27 28 28 29 29 28 27 27 26 25 24 22 22 21 21 20 19 19 19 19 19 19 18 16 15 14 13 11 9 9 12 11 11 11 10 10 12 13 10 9 8 7 7 6
3 4 4 2 1 1 2 1 3 0 3 5 4 3 3 4 4 1 3 1 4 7 4 5 4 4 6 10 18 14 5 10 12 11 11 10 9 9 11 12 13 15 17 19 20 22 23 24 24 24 24 25 27 28 28 29 29 30 29 29 28 27 26 24 23 22 22 22 21 20 20 20 20 20 19 18 17 16 15 14 13 10 10 12 13 12 11 11 10 13 13 11 10 9 7 7 7
4 3 3 1 2 3 4 1 2 2 2 3 2 2 4 2 5 3 3 3 4 7 8 5 5 7 12 19 22 12 6 12 13 13 12 11 11 11 13 14 15 17 18 20 21 22 22 23 24 24 24 25 26 27 29 30 30 31 31 30 29 28 26 25 24 23 22 22 22 22 22 22 22 21 20 19 19 18 17 16 14 12 11 12 15 14 13 12 10 11 13 12 11 9 8 8 7
3 3 2 3 5 5 3 2 4 2 2 3 3 3 4 2 4 2 3 7 5 6 10 7 8 11 11 15 14 8 9 13 14 15 13 13 13 14 15 16 17 18 19 20 21 22 22 23 24 25 25 25 25 27 28 30 31 32 33 32 30 29 27 26 25 24 24 23 23 23 24 24 24 23 21 21 20 19 18 16 15 14 12 13 15 16 15 13 11 10 11 12 11 9 8 8 8
1 3 2 5 6 4 5 4 4 1 2 2 3 4 5 5 3 2 3 8 7 6 9 8 10 13 11 8 7 4 8 13 15 15 15 16 16 16 16 17 18 19 20 20 19 20 22 23 25 26 27 26 26 26 27 29 31 32 34 33 32 30 29 28 27 26 25 24 25 25 25 25 25 24 23 22 21 20 19 17 17 16 14 13 15 18 16 14 14 11 11 13 11 10 9 8 8
1 4 4 7 4 3 7 7 4 2 2 2 2 4 6 6 2 2 5 7 8 8 8 10 13 14 12 9 9 8 6 11 14 15 16 17 17 18 18 18 18 18 18 19 19 20 21 22 24 26 28 27 27 27 27 28 29 31 33 34 33 32 31 30 29 28 27 26 26 26 26 26 26 25 24 23 22 21 21 20 19 18 17 16 16 19 18 17 17 14 14 14 12 10 9 9 8
1 4 6 7 3 3 7 6 4 3 3 2 3 5 5 3 2 4 5 6 9 8 8 10 13 12 11 10 11 11 6 6 9 12 16 17 18 20 21 21 19 18 17 18 20 20 20 21 22 24 27 29 28 28 28 28 29 31 32 32 32 31 31 31 31 29 28 27 27 27 27 27 26 25 24 24 23 23 22 22 21 20 19 18 18 20 21 21 21 19 18 15 12 11 10 10 8
2 4 5 6 5 4 5 5 5 5 4 4 4 3 2 3 6 5 5 11 13 11 9 10 13 14 12 10 8 8 9 8 8 11 14 16 17 19 20 20 18 18 18 19 20 20 21 21 21 23 25 28 29 29 28 28 29 30 30 30 30 30 30 31 32 31 30 29 29 29 29 28 27 26 25 24 24 24 23 23 22 21 21 20 20 21 23 24 23 21 20 15 14 14 12 11 10
5 4 5 6 5 4 6 5 6 6 6 7 4 2 3 5 6 3 6 14 15 13 10 10 14 16 13 9 7 8 9 9 10 13 15 17 19 19 19 18 17 16 17 18 19 20 21 21 21 22 23 25 28 29 29 29 29 30 30 30 30 29 29 29 30 31 32 31 31 31 30 29 28 27 26 25 25 24 24 23 22 22 22 21 21 22 24 25 25 23 21 17 16 15 14 12 11
4 3 4 3 4 5 7 7 7 9 8 7 6 6 7 9 4 4 11 16 16 14 10 9 12 13 11 9 8 7 8 9 11 13 14 13 12 11 11 11 12 12 14 16 17 19 20 20 20 21 22 22 25 28 29 29 29 29 29 29 30 29 29 29 29 29 31 32 32 32 31 30 29 28 27 26 26 26 26 24 24 23 22 22 22 24 25 26 26 25 22 19 17 17 16 15 14
2 2 3 4 5 6 7 7 9 10 7 5 7 10 10 7 2 5 13 16 16 12 8 9 8 9 10 8 8 6 6 9 14 18 23 27 28 24 22 21 15 10 9 10 10 13 16 18 19 20 20 20 23 26 29 29 29 30 30 30 29 28 29 28 28 28 30 32 33 33 32 31 30 29 29 28 28 28 27 26 25 24 23 23 23 25 27 27 27 26 24 21 20 19 18 17 15
2 3 4 5 6 8 7 9 12 9 7 7 7 13 11 2 1 5 11 13 12 9 9 9 6 7 8 8 6 6 11 14 17 22 26 29 31 28 29 31 27 23 17 14 13 10 11 14 17 18 19 19 21 24 26 28 29 29 30 30 28 26 26 27 27 27 28 29 31 32 33 32 31 30 30 29 29 30 29 27 26 24 24 24 25 26 27 27 27 26 24 22 22 21 20 18 16
2 3 6 8 8 9 10 11 13 6 4 8 8 11 11 1 3 8 12 11 10 8 8 7 6 6 7 6 6 11 12 15 21 24 22 21 22 23 27 29 29 27 24 21 17 10 6 10 13 15 17 19 20 22 23 26 28 28 28 29 29 27 25 25 25 26 27 27 28 29 31 32 32 32 31 31 31 31 30 28 26 25 25 25 25 26 27 27 26 24 23 22 21 21 20 19 18
3 2 4 8 7 8 12 10 10 5 3 6 7 4 9 2 6 11 11 8 8 8 7 5 5 6 7 6 10 11 11 18 23 22 19 18 21 22 25 27 28 28 26 24 19 13 7 6 9 11 13 16 19 19 21 23 25 26 26 26 27 27 26 25 24 25 26 26 26 27 28 30 31 32 32 31 31 31 30 29 27 26 25 24 25 26 26 25 24 23 22 20 20 21 21 20 19
4 1 2 5 5 6 11 7 6 4 3 4 8 1 8 6 8 9 9 6 7 11 10 7 6 7 6 8 10 9 13 18 19 20 21 22 22 24 25 26 27 26 25 24 22 20 14 6 3 6 8 13 16 17 19 20 22 23 24 22 22 24 26 25 24 24 24 24 25 26 27 28 29 31 32 31 30 30 30 28 27 26 25 24 25 26 26 25 25 24 23 22 21 22 22 22 21
3 1 2 1 1 5 10 5 2 0 2 2 6 3 7 9 9 7 8 6 6 9 11 8 7 6 6 9 8 9 12 16 19 21 23 24 24 25 26 27 26 26 25 25 24 23 19 13 8 5 1 6 11 14 16 16 18 19 20 19 17 18 21 23 23 23 23 22 23 25 26 27 29 31 32 31 30 29 29 28 27 26 25 25 25 26 26 26 26 26 25 24 23 23 23 22 22
2 0 2 2 3 5 10 7 3 3 2 2 4 4 5 9 12 8 6 7 6 7 10 9 6 7 9 8 8 8 8 14 20 23 24 25 26 26 27 28 28 27 26 25 24 23 21 18 14 12 10 5 0 6 9 9 10 12 14 15 13 13 15 19 21 22 22 21 21 22 24 26 27 30 31 30 30 29 29 28 26 26 25 26 26 26 27 27 27 26 26 25 25 25 24 23 22
2 2 3 4 3 3 5 6 2 5 3 1 2 3 4 5 10 11 7 7 7 6 8 7 8 10 9 7 8 8 7 12 17 23 26 26 27 27 28 28 28 28 27 25 25 24 23 21 18 15 14 12 9 3 1 2 2 4 7 8 8 8 10 13 16 18 20 20 20 20 21 22 25 28 29 29 28 28 28 27 26 26 26 27 27 27 27 27 27 26 25 25 26 26 26 25 23
4 1 3 4 4 2 3 6 4 4 5 2 4 4 6 7 8 13 13 10 6 6 6 5 9 8 8 7 8 9 9 11 13 19 25 26 27 28 28 28 28 28 27 26 26 26 25 23 20 18 15 13 12 8 5 3 3 3 3 3 2 3 4 6 9 11 14 17 18 18 19 19 21 25 27 27 26 26 26 26 26 26 27 28 28 28 28 27 27 26 26 25 26 26 26 26 24
4 4 3 4 4 3 4 5 2 2 2 3 5 6 8 9 9 11 16 13 5 4 3 8 9 8 8 8 8 9 10 11 12 17 23 26 27 27 28 29 29 29 29 29 27 26 26 25 23 21 19 16 13 11 8 6 5 4 3 3 3 2 2 2 3 5 7 10 12 14 17 18 19 22 24 25 25 25 25 25 26 27 28 29 29 29 29 28 27 27 27 26 27 26 26 25 24
7 7 5 5 5 4 6 7 4 3 3 5 7 8 7 8 9 10 14 12 6 6 7 9 7 8 8 7 8 8 10 10 11 18 23 26 26 26 27 28 29 29 30 31 30 29 28 26 25 24 23 20 17 15 13 11 9 8 6 5 4 4 3 2 1 1 1 3 5 8 11 13 15 18 21 23 24 24 24 25 27 28 29 30 31 31 31 31 30 29 29 28 28 26 24 24 24
7 6 6 6 5 5 6 6 5 3 2 6 7 6 5 6 8 10 12 8 6 6 8 8 7 8 7 8 9 8 9 8 11 18 23 25 26 26 26 27 29 30 31 32 31 30 29 27 26 25 24 22 21 21 20 19 16 14 12 10 7 6 5 4 3 3 4 4 3 4 5 6 9 12 16 20 22 24 25 26 27 28 29 30 31 32 32 31 31 30 29 28 28 28 26 25 26
6 6 6 5 5 6 6 6 6 2 2 6 4 2 6 7 8 13 10 5 4 5 9 8 9 9 6 9 9 8 7 6 10 16 21 24 25 25 27 28 30 31 31 31 31 30 29 28 27 25 24 22 22 21 21 21 20 18 17 15 12 10 8 5 4 3 4 5 5 6 6 6 6 7 11 16 20 22 23 25 26 27 28 29 30 31 31 31 30 30 29 28 28 29 29 28 30
6 5 3 3 4 4 6 6 5 0 3 5 5 3 6 8 10 13 7 5 4 4 8 8 9 9 7 8 7 7 7 7 9 12 17 21 22 24 26 28 30 30 31 31 31 30 30 29 27 26 25 24 23 21 20 20 20 18 17 17 15 14 12 9 6 5 4 4 5 7 8 8 8 8 9 12 16 19 20 22 24 25 27 28 29 30 30 30 30 30 30 30 28 28 28 29 34
5 4 3 4 4 2 4 5 4 1 2 3 4 4 5 7 8 7 6 7 8 8 9 8 7 9 8 7 7 7 8 8 9 9 12 17 20 22 25 26 27 28 30 31 30 29 29 29 28 27 26 25 23 21 20 19 18 18 17 17 18 17 16 13 11 10 8 7 6 7 7 7 8 9 9 10 12 15 18 20 21 23 24 25 27 28 30 30 30 30 31 31 30 27 26 28 35
4 5 5 5 5 5 6 4 4 3 4 2 1 4 4 6 8 1 4 5 8 8 9 10 7 7 8 8 8 8 8 8 8 8 9 12 16 19 23 24 25 27 29 29 29 29 29 29 28 27 26 24 23 21 20 19 19 19 18 18 19 20 20 19 17 14 12 10 10 10 9 8 8 8 8 9 10 12 14 17 19 20 21 23 24 26 28 29 29 31 31 32 32 30 28 28 33
4 4 7 8 8 8 7 2 4 4 5 3 1 3 5 5 7 5 4 5 6 5 7 9 7 6 6 7 8 7 7 7 8 8 8 11 15 19 23 25 26 28 28 28 29 29 29 29 29 28 27 25 23 22 21 21 23 23 22 22 22 22 22 22 20 16 14 12 11 11 11 11 11 10 9 9 10 11 12 14 17 19 20 20 21 23 26 27 28 29 31 32 33 33 31 27 29
3 5 6 7 7 6 5 2 2 0 4 3 3 1 5 5 5 5 5 5 7 5 7 7 5 6 6 6 7 5 6 6 7 8 9 12 16 19 23 25 26 26 26 26 27 28 29 30 30 30 29 27 25 24 22 23 25 25 25 24 24 23 22 21 20 17 16 14 12 11 12 12 12 11 11 10 9 10 11 12 13 16 19 20 19 20 23 25 27 28 29 31 33 34 33 28 27
4 5 3 4 4 5 4 4 3 3 3 5 2 3 4 6 4 9 10 5 7 6 6 6 5 6 6 6 6 5 6 5 6 7 9 13 17 19 21 22 23 24 25 26 27 28 29 29 30 30 30 30 28 26 25 26 27 26 25 24 23 22 21 20 18 16 15 15 13 13 13 12 12 12 12 12 12 10 10 11 12 13 16 18 19 19 20 22 25 27 28 30 32 33 34 31 30
5 4 4 5 5 4 3 4 2 2 2 5 3 4 2 6 5 9 9 5 5 5 6 6 6 6 6 6 6 5 6 5 6 7 9 13 17 18 18 19 21 23 25 26 26 27 28 29 30 31 32 31 29 29 28 29 29 28 27 25 24 22 20 18 16 15 15 15 15 15 15 15 13 12 12 13 14 13 12 11 11 13 14 16 18 20 20 20 22 25 27 28 30 32 34 33 32
4 2 4 4 4 4 4 4 3 3 2 5 6 5 3 5 6 5 2 4 6 6 6 6 6 6 6 6 5 5 5 6 6 7 11 14 17 17 17 19 21 23 24 25 26 27 28 29 30 31 31 30 29 29 30 32 31 31 29 28 26 24 22 20 19 19 18 17 17 17 17 17 16 14 13 13 14 15 14 12 12 12 12 14 16 18 20 20 21 23 25 27 28 30 32 34 34
2 5 5 6 5 5 4 2 4 3 3 6 8 9 6 2 6 4 2 3 7 9 7 7 7 7 6 5 5 4 5 5 5 7 11 15 17 17 17 19 20 21 23 24 26 26 27 27 28 29 29 28 28 29 31 33 33 32 31 29 29 27 26 25 25 25 23 22 21 20 18 17 16 16 14 13 13 14 14 13 13 12 12 13 15 16 18 20 21 22 23 25 27 28 29 32 34
4 5 4 4 4 4 5 4 4 2 5 6 7 8 7 4 6 3 3 5 5 11 11 12 10 8 7 5 5 4 4 5 5 5 8 12 14 15 17 18 19 20 22 23 24 25 25 25 26 27 27 26 27 28 31 32 32 32 31 29 28 27 27 27 27 27 25 25 24 23 21 20 19 17 16 15 15 15 14 12 12 13 13 13 15 17 18 19 20 22 23 24 26 27 27 28 32
5 4 5 3 3 3 2 1 0 3 6 6 4 4 4 6 5 1 4 7 4 8 9 12 12 9 8 6 5 5 4 4 5 5 5 7 9 12 14 15 15 17 19 21 22 22 23 24 25 26 25 25 26 28 30 31 32 32 30 29 28 27 27 27 27 26 25 25 24 24 24 23 23 22 20 19 18 17 16 13 12 12 13 14 16 17 19 19 20 21 22 24 25 26 27 27 29
4 4 4 4 2 1 2 4 2 3 5 5 3 3 2 5 2 4 5 5 6 10 11 10 10 10 8 7 6 5 5 5 4 4 4 5 7 10 11 11 11 12 15 18 19 20 21 22 23 24 24 24 25 27 29 31 31 30 29 28 27 27 27 27 27 27 26 25 25 24 24 23 23 23 22 21 20 17 15 13 12 12 13 14 15 17 18 19 19 21 22 24 25 26 26 27 28
5 5 5 4 4 4 3 4 3 3 4 4 3 1 3 3 0 4 4 6 8 10 10 9 9 8 7 7 6 5 5 4 4 4 4 6 8 9 9 8 8 10 14 17 18 19 21 21 22 23 23 23 25 27 29 30 29 28 28 27 26 26 26 26 26 26 26 26 25 25 24 24 24 23 23 22 21 19 17 15 13 13 14 15 15 15 16 16 17 19 21 23 24 25 26 27 28
3 3 4 2 4 4 2 3 4 3 2 4 3 2 2 3 2 3 5 7 9 9 9 9 8 6 6 6 5 5 4 4 4 4 4 6 8 9 8 7 8 12 15 16 17 18 20 21 22 23 23 23 25 27 28 28 27 27 26 25 25 24 24 24 25 24 25 24 24 24 24 24 24 23 23 24 23 22 21 19 17 16 15 15 15 15 15 16 17 18 19 21 22 23 25 27 28
1 3 3 5 4 5 1 4 2 2 2 4 2 2 2 2 2 2 5 7 8 7 7 8 6 6 6 5 5 4 4 4 4 4 4 6 8 8 8 8 9 12 14 14 14 15 17 20 22 22 22 23 23 24 24 24 24 24 23 22 22 22 22 23 23 22 22 22 22 22 22 22 23 23 23 23 24 23 23 23 22 20 18 18 17 16 16 16 17 18 19 20 21 22 24 26 27
3 2 4 3 1 3 3 1 2 1 4 3 2 6 5 2 2 1 4 6 6 5 6 7 6 6 6 5 5 4 4 4 4 4 5 7 8 8 8 8 9 11 12 12 12 13 15 17 19 21 21 21 20 20 19 19 19 19 19 19 19 19 20 20 20 20 20 20 21 21 21 22 22 22 22 22 22 23 23 23 23 23 22 21 20 18 17 16 16 18 19 21 21 22 24 25 25
4 3 2 1 1 2 1 1 2 4 6 4 4 8 6 4 4 4 6 7 7 7 6 6 6 6 5 5 5 5 4 4 4 4 4 6 8 7 7 7 8 10 10 12 13 13 14 15 15 17 18 18 17 16 16 15 15 14 14 15 16 17 18 18 18 18 18 19 20 20 21 21 22 22 22 22 23 23 23 23 23 23 23 23 22 21 19 18 17 18 19 20 21 22 24 26 25
2 1 2 1 3 3 2 2 3 3 5 5 5 6 4 3 3 6 9 10 10 9 7 6 6 6 6 5 5 5 5 5 5 5 5 6 8 7 7 7 8 9 9 10 12 12 13 13 13 13 14 15 16 15 14 14 14 13 12 13 14 15 16 17 17 17 18 19 20 20 21 21 21 22 22 22 23 24 24 24 23 23 23 23 23 22 21 20 19 18 18 20 21 21 24 26 26
1 2 2 1 1 1 2 2 2 3 3 4 5 5 4 3 1 3 8 10 10 10 9 7 6 7 7 7 6 6 6 6 6 5 5 6 8 7 7 7 7 7 7 7 9 9 9 9 10 10 10 12 13 13 13 12 13 12 12 13 13 15 16 17 17 17 17 19 20 21 22 22 23 23 23 23 23 23 24 24 24 24 24 24 23 23 23 22 22 21 20 19 20 20 22 24 26
3 2 3 3 2 1 3 4 2 3 3 4 5 6 5 2 3 2 3 7 8 8 9 8 7 9 9 7 7 7 7 6 6 5 5 7 7 6 6 5 5 5 5 5 5 6 7 7 8 7 6 8 9 10 11 11 11 11 11 11 12 14 17 19 19 19 18 19 21 22 24 24 26 26 26 26 26 25 25 25 25 25 26 26 25 24 24 24 24 24 23 22 21 20 21 23 24
Wind_Direction
321 321 16 3 344 339 330 63 67 326 73 33 304 99 313 309 114 63 51 50 42 291 215 208 292 327 243 180 191 197 198 193 183 141 206 228 138 159 174 165 174 185 189 185 183 186 187 187 188 187 182 177 176 174 174 176 177 178 177 179 179 176 176 176 174 164 161 159 158 155 153 154 152 153 154 156 156 154 155 155 148 148 145 155 157 132 124 124 117 107 94 85 107 97 84 78 74
325 320 23 349 326 342 309 86 81 336 49 24 317 101 246 357 56 78 96 114 180 217 210 209 309 323 323 29 149 128 257 219 175 144 191 155 135 164 178 177 177 185 190 186 185 187 188 189 189 189 185 182 180 178 178 180 180 181 181 183 184 181 179 180 174 167 166 165 163 162 164 161 159 160 159 162 163 163 162 161 156 156 157 157 150 138 130 120 107 100 84 63 124 112 86 73 55
358 353 9 352 320 21 7 44 84 67 65 75 317 302 38 51 63 121 149 167 186 182 161 64 9 297 31 21 83 122 269 253 128 95 120 148 153 176 186 183 178 190 193 186 189 190 190 190 191 191 187 185 183 181 181 182 182 183 184 185 187 183 181 184 175 170 171 170 171 171 172 168 169 168 167 172 170 169 166 163 161 162 162 158 154 142 128 114 108 106 87 63 99 105 87 60 4
17 11 355 6 15 29 48 46 109 107 85 133 52 312 39 89 74 116 191 185 173 127 82 75 22 246 97 343 246 157 255 297 153 141 143 182 179 179 187 174 172 192 195 188 190 192 193 191 192 193 189 188 186 185 185 184 183 184 186 187 187 183 182 185 179 174 176 177 179 179 178 177 176 172 172 172 169 168 164 164 163 164 164 159 151 137 125 115 113 103 42 37 81 112 90 16 327
10 8 333 9 60 23 72 67 58 85 108 185 130 301 97 110 64 358 327 114 134 109 114 113 5 291 90 242 219 146 230 298 167 140 149 184 172 162 169 163 169 189 196 191 191 194 196 193 193 194 192 190 189 188 188 187 185 187 190 189 185 181 181 183 181 178 180 183 185 185 185 187 183 177 175 169 167 165 156 162 163 162 162 154 141 133 127 118 107 74 45 20 17 262 262 315 329
1 1 329 354 109 137 78 57 342 318 240 169 134 260 162 109 100 33 353 43 45 90 112 103 141 309 328 258 198 178 225 135 149 140 153 173 164 156 154 164 170 186 196 193 194 196 197 197 195 196 195 192 191 190 189 189 188 190 193 191 184 180 180 181 182 182 185 187 188 189 191 197 190 182 179 170 167 162 159 168 166 161 157 153 148 142 135 123 108 76 65 34 297 263 259 321 344
348 354 353 44 356 65 84 129 240 245 251 162 144 198 127 110 118 63 345 36 19 16 57 5 141 79 281 278 300 272 305 131 160 145 151 159 161 155 150 169 173 183 196 199 199 198 197 200 199 197 198 196 194 193 192 192 191 191 193 193 186 181 181 182 185 186 188 190 190 191 196 203 193 185 180 173 169 164 168 170 165 164 161 161 159 154 148 141 129 115 148 135 256 254 272 10 30
330 334 57 79 21 21 80 240 250 211 256 220 150 137 116 136 118 74 316 13 5 248 32 261 112 79 279 328 311 273 56 126 153 143 144 148 159 155 157 173 177 183 193 203 204 202 198 200 203 201 199 199 198 196 196 197 195 193 195 196 190 186 185 186 188 188 189 190 191 191 199 208 196 187 183 179 176 171 177 176 166 169 175 179 176 169 165 175 188 175 167 153 198 249 358 54 85
338 161 34 73 56 12 15 316 290 245 268 288 111 95 109 130 108 91 304 340 291 162 175 212 123 108 284 339 272 278 31 139 148 147 146 148 154 154 167 176 182 185 188 197 205 209 204 201 205 205 203 201 201 200 199 200 200 199 198 198 195 193 192 192 191 190 190 191 192 192 200 210 198 188 185 181 179 179 185 185 177 178 188 197 198 194 186 191 201 188 172 161 202 261 41 88 102
11 93 68 76 60 16 346 315 287 303 304 320 70 91 110 100 70 79 270 310 328 93 218 191 100 160 271 312 266 285 243 171 163 161 157 157 154 155 170 173 181 188 188 192 202 211 210 206 206 208 207 205 204 203 203 203 203 204 202 198 198 199 200 198 196 194 193 192 193 194 202 210 203 189 186 186 186 189 191 191 192 194 194 204 211 213 212 214 214 200 183 176 207 256 97 108 111
24 348 82 75 44 25 310 298 292 296 298 326 35 348 104 101 61 22 15 332 334 10 315 45 51 251 260 281 265 265 187 185 187 178 168 164 154 155 166 164 173 189 196 195 201 208 212 212 208 209 211 209 209 207 207 206 205 207 206 202 201 202 203 204 203 202 200 197 197 200 205 211 203 190 191 197 198 201 204 204 207 207 204 214 223 222 218 217 213 194 187 192 216 210 127 121 119
54 334 61 78 90 210 238 282 298 300 323 1 17 312 343 92 71 16 24 352 326 4 344 225 104 208 353 280 271 227 173 193 207 187 170 168 155 152 164 169 174 189 200 202 203 207 212 213 209 209 211 213 213 212 212 209 207 208 208 206 203 204 206 207 208 208 208 205 204 205 209 212 201 194 199 202 204 209 212 215 215 218 219 221 227 217 202 199 189 189 207 210 216 188 139 129 127
69 351 74 85 208 251 283 285 302 325 347 354 209 282 342 70 80 161 71 354 323 2 282 224 112 83 257 269 289 299 189 205 205 183 172 170 162 159 169 176 182 189 197 205 207 208 212 213 212 210 210 213 215 217 216 214 211 209 210 209 206 207 208 211 210 211 212 211 211 210 213 214 202 199 205 204 208 213 215 220 220 229 233 221 221 207 193 190 180 192 216 217 204 175 143 135 131
70 108 98 178 302 4 283 288 320 36 326 270 228 275 0 70 185 137 80 339 302 268 227 228 160 78 272 289 314 297 222 208 195 186 179 169 169 172 183 188 191 194 197 206 210 213 214 215 215 213 212 213 214 217 218 217 215 212 212 212 211 210 211 213 212 213 214 213 214 213 216 217 207 205 209 208 211 214 217 225 228 240 234 208 205 196 187 186 181 196 217 212 193 171 145 140 135
116 76 95 85 339 349 259 238 207 110 284 248 218 223 33 302 170 88 73 250 272 229 225 276 148 141 249 281 278 254 221 206 195 186 180 177 181 179 192 199 201 202 202 208 212 217 218 217 217 216 215 214 215 216 218 219 218 216 215 215 214 214 215 216 215 216 216 215 214 215 219 220 215 211 211 214 216 218 222 230 237 246 220 196 201 200 192 186 182 203 218 207 187 167 151 148 141
103 95 69 46 323 339 265 257 69 66 283 241 261 84 65 320 70 76 234 180 270 269 304 273 191 212 240 242 253 253 229 200 192 184 183 188 195 190 197 205 211 210 210 213 215 219 221 221 219 218 217 217 219 219 219 220 220 219 217 217 217 219 221 221 220 220 220 218 215 215 218 219 217 214 213 217 222 226 229 236 243 243 213 196 202 203 196 189 190 210 216 202 185 169 160 159 151
62 74 66 9 257 220 235 328 28 57 262 265 302 38 89 316 345 348 255 144 283 287 284 238 228 232 234 252 262 266 230 195 191 187 189 195 199 198 203 209 215 217 218 220 221 222 221 223 223 221 220 220 221 221 222 222 222 220 218 218 219 221 224 226 226 224 224 221 217 215 215 217 215 214 215 218 224 230 235 242 244 239 222 203 203 207 198 190 198 215 217 201 184 171 165 166 164
57 79 103 256 225 209 210 260 322 218 263 295 293 59 80 332 322 325 310 321 293 291 289 269 268 252 242 257 270 277 221 202 197 195 197 198 200 201 211 217 220 226 227 226 227 226 223 223 225 225 224 223 222 222 223 224 223 220 219 219 220 222 224 227 228 226 226 221 217 215 215 215 213 214 216 218 222 228 234 239 240 238 232 214 207 209 204 195 198 210 214 202 180 170 172 173 173
96 126 142 224 212 230 248 295 335 334 263 325 351 25 35 314 294 340 289 286 295 297 291 297 294 275 262 265 273 268 220 211 203 202 204 204 207 208 218 224 224 233 235 232 232 231 228 225 225 227 228 227 224 222 224 225 224 221 219 220 220 222 224 226 227 227 225 221 218 216 215 215 213 213 215 218 222 227 232 236 240 240 238 226 211 210 208 200 199 201 206 199 178 171 179 180 178
163 133 166 238 225 263 293 308 336 320 187 29 342 340 345 293 283 358 272 278 287 274 271 285 287 282 282 277 282 267 215 216 214 213 218 219 221 223 227 230 230 238 244 243 241 235 232 230 228 227 229 230 227 224 223 224 224 222 219 219 220 221 224 225 225 225 224 220 218 216 215 215 214 214 215 220 225 229 233 234 237 237 237 232 216 212 209 202 204 201 200 197 182 178 184 185 183
177 143 185 231 226 280 282 294 321 322 66 86 286 332 324 287 283 292 274 286 285 262 244 250 262 272 281 283 293 293 236 221 220 221 229 231 231 232 237 241 246 256 258 250 242 237 233 233 232 229 229 229 230 228 224 223 223 221 220 220 222 223 224 225 224 224 223 219 218 216 214 215 215 216 218 223 228 231 233 232 232 233 234 231 220 214 208 204 206 203 202 198 185 185 190 191 187
180 200 208 228 230 275 273 296 316 306 7 5 316 321 292 286 312 270 263 266 264 262 245 242 252 260 270 278 291 297 283 253 239 229 231 236 236 235 241 245 250 258 257 249 245 243 236 233 234 232 228 227 229 230 228 226 222 221 222 221 222 223 224 224 223 223 221 218 217 216 214 215 216 217 221 225 229 232 232 232 232 232 232 230 222 215 209 207 208 207 208 200 187 191 197 197 190
208 259 235 235 232 247 271 302 306 299 318 301 287 272 263 322 298 258 238 251 255 263 258 255 263 265 270 278 288 292 290 283 266 253 243 239 238 239 244 246 249 252 250 252 254 250 241 234 233 232 229 227 227 229 229 227 224 223 223 221 221 221 222 222 222 221 220 218 217 217 216 217 218 219 222 226 229 231 231 231 232 232 231 229 224 217 212 211 212 213 212 200 190 194 199 204 200
198 269 270 258 260 264 286 304 305 304 286 271 270 293 283 268 276 285 258 260 264 267 263 260 269 277 282 284 283 283 287 283 270 271 268 259 253 250 252 253 255 253 248 252 255 250 245 240 234 231 231 230 228 227 228 227 226 225 225 224 223 223 223 222 222 221 220 219 218 218 218 219 220 221 223 226 228 229 230 230 230 231 231 229 225 218 215 214 214 217 214 201 194 198 201 207 208
205 251 272 300 309 295 303 308 302 300 285 279 293 289 257 242 260 304 271 272 275 273 273 267 271 283 287 284 284 280 277 290 307 320 324 320 313 298 294 292 277 262 254 256 254 249 249 245 236 232 232 234 231 227 226 227 226 225 224 225 224 225 225 225 225 224 223 222 220 221 221 221 222 222 223 225 228 229 230 229 227 228 229 228 225 220 217 217 216 218 217 206 200 203 203 208 210
268 303 307 332 314 298 305 299 287 284 278 279 287 276 259 249 289 284 263 266 274 284 292 277 274 282 285 285 283 291 319 351 3 14 21 25 28 23 17 16 9 353 320 304 288 263 253 245 237 236 236 237 235 229 227 227 226 224 224 225 226 227 227 228 227 227 227 226 224 224 225 225 224 224 223 225 228 229 228 227 226 226 228 228 226 222 218 219 219 219 218 211 206 207 207 209 211
303 349 329 315 305 302 295 286 280 276 273 258 254 268 270 248 122 272 265 264 276 299 301 291 300 291 288 292 308 10 30 31 31 35 31 28 30 24 20 22 21 21 17 7 353 315 270 251 245 243 241 239 235 232 230 229 227 226 226 226 227 228 227 228 228 229 230 229 229 228 227 227 227 226 225 225 227 227 226 225 225 226 228 228 227 223 219 220 221 221 219 214 210 210 210 212 213
314 353 340 311 316 312 286 279 277 269 267 236 208 258 279 94 163 252 265 277 294 304 299 311 337 321 303 309 14 45 46 37 36 40 34 26 27 23 22 20 16 22 24 21 15 359 302 269 259 251 244 239 236 234 234 232 230 229 228 227 226 227 228 228 229 230 230 230 230 230 229 228 228 228 227 226 226 225 224 225 226 227 229 229 227 223 220 220 222 223 221 217 213 211 212 214 214
314 344 343 301 328 311 276 270 262 229 225 211 156 271 292 223 211 246 264 287 313 313 307 336 353 323 319 5 51 54 41 37 38 38 33 28 29 28 28 24 21 23 22 24 26 25 9 296 267 262 251 241 238 238 237 235 234 231 229 230 229 229 229 230 231 229 230 230 229 228 229 229 229 230 229 227 225 224 224 225 227 229 231 230 227 222 219 220 221 219 219 217 215 212 212 214 213
306 328 135 284 346 308 272 267 263 233 214 172 130 248 284 251 233 249 275 308 342 325 317 338 341 314 344 47 62 53 40 38 36 33 29 28 28 28 29 28 29 28 24 27 29 31 29 17 300 283 261 246 243 240 238 237 236 232 231 233 234 233 231 231 231 230 229 229 230 230 230 230 230 230 229 226 224 225 225 225 228 231 231 229 225 221 218 219 218 215 215 214 214 213 213 213 213
282 335 137 251 5 280 281 282 283 351 286 136 129 202 263 272 268 257 274 304 344 321 308 319 323 328 37 66 64 54 47 41 37 32 29 28 27 26 27 28 33 34 31 30 30 34 40 47 45 31 342 247 241 237 236 235 236 234 233 235 238 238 234 232 232 231 231 230 230 230 229 229 229 228 228 226 225 225 226 226 230 232 230 226 223 221 219 218 217 216 215 213 212 213 213 213 214
268 293 303 290 175 257 295 290 245 185 273 24 130 213 261 275 279 269 263 291 317 310 298 315 353 36 63 66 57 59 51 44 40 33 29 30 29 27 26 27 33 37 38 37 36 40 46 52 54 54 54 47 2 228 229 227 232 233 233 237 240 241 237 234 233 232 232 231 230 229 228 228 227 227 227 227 227 227 228 229 232 232 228 224 222 220 220 219 218 218 217 217 213 209 208 209 212
301 188 241 262 216 261 300 302 299 148 140 12 208 240 271 269 282 284 276 281 304 309 301 336 45 62 66 60 52 56 45 40 36 29 27 28 30 30 30 29 31 38 43 45 45 45 48 51 54 53 49 43 44 50 197 184 181 205 221 231 236 240 237 234 233 232 232 231 232 231 229 228 227 227 227 227 228 228 230 232 232 229 226 224 223 221 222 222 222 219 217 218 217 212 206 205 206
303 249 227 246 236 245 281 303 331 95 119 226 244 241 250 263 285 292 292 286 298 313 317 33 75 71 63 62 56 51 43 41 32 26 25 27 31 32 33 33 32 36 43 49 51 51 51 53 55 56 55 51 48 50 55 65 88 123 154 173 196 211 218 226 227 229 231 233 234 234 233 232 229 228 227 227 228 230 232 233 232 228 226 226 224 224 224 224 223 222 218 215 217 216 210 205 205
243 243 245 264 259 262 274 276 268 122 145 227 247 253 253 270 280 285 288 289 322 357 24 77 85 77 71 64 59 54 49 47 35 29 30 31 33 33 35 37 36 36 39 46 51 54 55 55 57 59 60 63 63 62 59 53 52 62 80 89 90 100 125 176 204 220 229 234 237 238 238 237 234 232 231 230 230 231 232 233 233 229 228 227 225 224 224 222 222 222 221 216 214 216 218 213 207
222 231 233 244 259 269 261 259 236 196 244 248 242 252 254 263 267 271 277 290 358 43 78 90 88 82 80 71 66 61 54 50 38 36 38 37 35 34 37 39 41 41 41 44 49 51 51 52 55 56 56 62 69 68 65 63 58 51 47 46 44 43 43 51 45 4 295 260 249 246 244 242 240 238 236 235 234 234 235 235 234 232 229 227 226 225 224 224 224 222 221 218 214 213 217 215 209
233 245 252 242 243 263 260 267 265 184 220 258 238 245 267 264 270 270 272 304 12 81 99 96 95 89 86 82 76 67 62 53 42 43 42 41 39 37 38 39 42 44 43 45 47 49 50 51 52 52 53 59 65 65 64 64 63 60 59 59 58 48 34 25 13 0 353 343 328 306 282 265 254 248 244 243 241 240 240 238 235 233 230 229 229 230 230 229 228 227 224 220 217 214 211 210 207
241 237 248 257 244 256 263 263 269 190 171 263 270 304 288 278 279 278 287 342 24 116 117 110 104 97 88 86 80 73 71 54 45 43 40 40 40 40 41 41 41 41 42 44 46 48 51 53 52 51 54 59 61 64 65 62 60 61 62 64 70 71 64 54 34 0 338 334 330 325 321 311 290 268 257 253 250 247 244 240 237 235 233 232 232 233 234 232 229 228 225 219 218 217 214 208 201
245 229 219 260 260 276 289 283 290 72 163 261 300 307 277 275 273 285 317 61 69 78 104 111 108 103 93 87 85 79 73 55 47 41 36 37 38 41 44 44 44 43 43 44 45 47 49 51 52 53 55 59 62 65 68 67 66 67 64 62 65 63 57 53 51 39 5 344 333 327 322 315 308 296 280 267 261 259 255 248 242 240 238 236 234 233 233 232 229 228 226 222 217 215 216 211 204
249 233 221 258 264 264 282 294 316 310 222 257 278 278 277 274 272 308 18 86 91 73 87 90 90 101 98 95 88 79 74 62 53 43 34 34 35 39 43 45 47 47 46 45 45 46 47 49 51 53 55 58 63 66 70 74 77 78 74 72 72 66 59 57 59 57 50 41 24 6 351 336 326 312 300 287 275 270 267 261 254 248 245 242 239 236 234 233 231 229 228 225 218 210 211 212 209
260 221 205 237 254 225 225 274 326 325 313 309 279 310 307 253 248 267 61 92 96 95 95 86 80 91 92 91 81 71 71 67 59 52 37 34 36 39 42 44 47 48 47 46 47 47 48 50 52 54 55 58 63 67 71 77 80 80 80 78 74 68 61 55 51 50 51 47 36 23 15 5 354 337 318 305 292 283 276 271 268 262 256 251 246 242 240 240 238 233 231 228 222 215 214 214 211
290 236 208 221 240 236 228 279 11 10 323 315 75 332 305 254 242 212 165 128 104 103 96 93 91 82 81 80 75 70 69 68 64 58 48 42 41 42 43 43 45 46 48 49 51 53 52 53 55 55 56 57 61 67 73 77 77 74 72 68 60 54 50 44 40 41 41 34 24 18 17 13 7 1 344 326 311 300 290 280 276 273 269 264 257 251 246 246 244 240 237 232 228 225 221 218 214
277 249 210 210 216 212 215 201 73 20 264 292 69 105 277 277 263 246 217 154 123 109 91 94 91 76 77 75 72 71 66 68 70 61 52 47 42 41 41 40 43 46 49 54 56 57 57 57 57 56 55 55 58 64 71 76 76 73 70 65 58 51 46 41 41 43 39 31 23 15 11 8 8 10 6 354 338 319 306 296 287 281 278 275 270 262 254 251 251 249 245 239 236 233 227 222 220
243 245 148 128 155 169 188 169 175 231 254 317 0 140 258 278 242 245 243 183 125 114 95 88 86 80 79 77 74 74 67 64 71 68 58 49 43 41 40 41 45 49 52 56 57 58 60 59 59 58 56 55 56 60 66 70 72 72 70 67 61 55 49 45 43 43 42 39 37 29 17 8 359 359 3 5 2 350 332 315 304 295 287 282 279 274 265 259 257 256 252 246 241 238 232 229 228
240 229 117 109 131 148 150 131 164 292 348 309 266 156 237 276 249 249 241 184 148 149 128 111 104 97 90 85 81 78 76 64 61 66 63 58 50 45 45 46 49 53 55 57 59 61 62 62 62 61 58 56 55 58 62 66 68 69 67 65 61 56 52 48 45 43 40 37 37 33 29 24 14 360 352 352 354 355 351 340 325 312 302 293 287 283 278 270 263 259 257 254 248 244 239 237 235
228 146 88 63 71 81 78 103 112 24 353 251 220 178 207 269 276 266 215 176 188 165 133 128 120 110 100 92 84 74 72 66 56 60 62 62 59 53 50 50 50 54 56 59 61 62 63 62 62 61 59 57 55 56 60 63 66 66 63 61 58 54 51 49 47 43 37 33 30 26 23 24 24 19 10 358 350 346 340 338 338 331 322 312 300 293 287 280 273 267 263 260 257 253 248 244 241
125 84 51 21 18 39 49 65 84 58 294 244 211 199 191 260 285 250 208 221 175 149 141 142 124 109 103 91 83 69 65 69 61 60 61 62 62 59 54 50 49 53 57 59 60 61 62 63 63 62 59 58 56 56 59 62 64 64 61 59 57 53 51 49 46 42 37 34 31 26 21 18 17 17 16 11 2 354 340 327 326 330 331 327 317 309 300 292 285 279 274 269 264 261 257 252 247
88 77 63 31 347 16 34 9 46 110 252 258 230 206 181 217 263 251 314 315 145 145 155 148 131 118 110 98 89 77 64 68 64 58 58 59 60 58 54 50 49 52 56 58 58 60 62 63 65 65 61 59 58 58 60 62 62 62 61 59 57 54 52 50 47 43 40 37 34 29 25 22 18 14 10 5 0 357 353 341 327 321 324 328 326 320 313 306 299 291 285 279 273 269 265 260 254
79 86 85 71 326 352 25 299 178 211 246 258 224 172 168 228 249 45 10 350 48 112 130 134 129 124 118 111 104 91 75 69 66 62 57 55 60 60 56 52 50 52 56 59 60 61 63 65 67 67 63 60 60 61 62 62 62 61 60 58 57 55 54 52 50 47 44 41 38 34 30 26 23 19 14 9 1 355 353 354 348 331 323 324 323 321 317 313 308 302 296 289 283 278 273 268 262
134 139 129 130 173 209 251 246 239 261 260 251 205 142 205 254 292 36 33 18 54 90 104 115 119 121 122 118 112 103 94 88 82 81 74 65 65 65 66 63 60 62 64 64 65 65 67 69 70 70 67 65 65 64 64 63 63 62 61 59 57 56 55 53 52 49 47 45 43 39 35 30 26 22 18 14 7 0 353 350 350 341 331 326 322 319 317 315 311 307 302 297 291 286 282 277 272
179 161 142 153 169 175 215 225 213 245 263 272 269 212 212 221 351 30 46 56 68 86 98 105 107 113 119 114 113 113 112 113 111 104 93 84 79 77 81 83 79 78 74 72 71 70 71 71 72 72 70 68 68 67 66 64 63 63 62 60 57 56 55 54 53 50 48 47 44 43 39 35 31 27 22 19 14 9 1 353 345 340 336 332 328 326 323 321 318 312 307 302 297 293 289 285 281
230 142 123 197 200 175 211 236 196 187 265 285 265 243 203 148 96 58 75 76 76 84 93 101 102 108 112 112 121 127 130 133 123 113 103 99 99 98 99 102 97 86 79 78 75 72 71 70 70 71 69 68 67 66 64 63 62 62 61 59 57 56 55 54 52 50 48 46 44 42 40 36 33 30 26 24 21 18 12 5 358 349 342 336 333 333 331 328 326 321 315 309 303 299 295 291 289
229 125 183 228 190 141 138 286 257 129 231 253 221 260 304 99 96 68 82 81 85 94 100 106 115 118 118 127 142 144 142 138 132 133 131 124 125 123 114 107 97 87 81 79 76 69 65 63 63 64 64 64 63 61 60 58 57 56 54 53 51 50 50 50 48 47 45 43 41 39 36 33 30 27 25 22 21 20 18 15 11 5 359 351 342 335 332 330 328 324 320 316 311 306 301 297 294
128 168 229 248 64 94 107 245 290 270 245 251 241 255 259 224 230 148 109 114 122 134 128 125 133 133 136 149 156 157 152 149 151 151 152 148 144 136 121 104 93 91 84 77 72 65 61 60 58 58 59 60 59 58 57 54 51 49 47 44 41 39 39 39 38 38 36 34 33 31 28 26 23 20 19 17 16 15 14 14 13 11 8 4 358 350 340 332 327 323 321 318 316 312 306 301 298
125 183 235 57 66 286 320 161 223 250 256 271 258 246 245 230 207 168 170 172 162 161 150 145 152 152 159 166 168 174 165 165 171 168 179 171 155 141 124 110 100 96 85 74 71 67 65 63 60 58 58 58 59 59 58 54 50 47 42 39 35 31 30 27 25 25 24 24 22 20 18 16 14 11 10 9 8 7 7 7 6 6 5 4 3 1 354 345 335 326 321 317 316 315 310 305 302
56 34 346 60 164 197 229 213 191 227 254 268 256 241 248 250 196 174 191 185 167 166 163 162 170 173 181 181 180 187 183 186 190 185 191 175 155 136 119 109 98 92 81 72 71 69 66 63 61 60 55 54 55 55 55 52 47 44 38 34 30 25 24 21 17 12 11 12 12 9 8 6 5 4 3 1 0 359 358 357 357 357 357 357 357 357 356 352 346 338 329 321 316 313 310 307 305
62 19 336 286 263 239 266 258 176 168 226 256 257 250 252 269 273 201 196 179 164 164 160 163 178 186 196 196 191 194 196 199 197 191 183 156 136 120 107 100 92 88 85 77 70 67 67 62 59 58 51 48 48 47 48 46 40 37 32 27 20 15 15 14 12 8 2 2 1 359 358 356 355 356 356 355 353 353 352 350 349 348 348 348 348 349 349 346 344 341 337 330 323 315 309 306 305
152 170 208 210 214 241 273 270 226 163 200 228 246 261 263 268 323 323 161 151 152 157 154 162 186 196 201 201 197 196 196 199 197 187 169 143 130 121 112 103 91 90 93 94 83 72 70 66 59 56 51 48 45 42 42 41 38 34 30 25 13 5 4 6 7 6 360 355 352 351 349 347 347 348 348 348 347 347 346 344 343 341 341 341 340 340 340 339 338 335 334 332 327 321 312 306 303
Height
806 806 805 805 804 804 805 806 822 827 827 839 834 830 825 815 817 818 821 818 818 816 810 810 809 809 812 814 816 815 815 817 818 823 827 811 802 804 804 805 805 806 807 809 810 811 812 814 815 816 817 818 820 821 823 824 825 826 828 829 830 831 832 833 834 835 836 837 838 838 839 839 840 841 841 841 842 843 843 844 845 845 846 846 846 847 847 848 848 849 849 849 849 849 849 850 850
806 806 805 805 803 806 810 808 828 836 834 843 834 828 823 815 818 821 821 818 817 813 808 808 808 808 808 809 811 813 812 808 806 809 809 803 804 804 804 805 805 805 807 808 809 811 812 813 814 815 816 818 819 820 822 823 824 826 827 828 829 831 831 833 833 834 835 836 837 838 839 839 840 841 841 842 842 843 843 844 845 845 846 846 847 847 847 848 848 849 849 849 849 849 850 850 850
807 807 805 806 804 807 811 813 831 841 841 846 836 824 820 820 822 820 816 813 811 808 807 808 809 808 809 812 812 815 812 803 802 803 804 804 804 803 804 805 804 805 806 807 809 810 811 812 813 814 815 817 818 819 821 822 824 825 826 827 829 830 831 832 833 834 835 836 837 838 839 839 840 841 841 842 842 843 843 844 844 845 846 846 847 847 848 848 849 849 850 850 850 850 849 850 850
807 807 806 806 808 811 816 823 832 838 842 844 838 825 819 823 821 816 812 809 807 806 808 809 811 807 808 815 811 811 811 802 800 801 802 802 802 802 802 803 805 805 805 807 808 809 810 811 813 814 815 816 817 819 820 821 823 824 825 827 828 830 831 832 833 834 835 836 837 838 838 839 840 840 841 842 842 843 843 844 845 845 846 846 847 848 848 849 849 849 850 850 850 850 849 849 849
807 808 807 806 814 817 820 827 830 834 837 836 835 827 820 820 817 814 811 809 807 807 808 809 813 807 806 810 807 810 808 802 800 797 799 800 800 802 801 803 804 803 805 806 807 808 809 811 812 814 815 816 817 818 819 821 822 823 825 826 827 829 830 831 833 834 835 836 837 838 838 839 839 840 841 841 842 842 843 844 845 845 846 847 847 848 848 849 849 850 850 850 850 849 849 849 849
807 807 806 806 812 814 822 830 832 834 827 823 827 824 819 816 814 813 811 811 808 807 807 809 812 811 810 805 801 804 801 800 799 796 797 798 799 800 801 802 803 803 804 805 806 807 809 810 812 813 815 816 817 818 819 820 822 823 824 825 827 828 829 831 832 833 834 835 836 837 838 838 839 840 840 841 841 842 843 844 844 845 846 847 847 848 849 849 849 850 850 850 849 848 848 848 848
808 809 809 811 814 815 829 835 833 834 821 815 819 818 816 813 811 812 812 813 812 809 808 809 808 812 814 806 803 799 796 797 796 796 796 797 799 799 801 801 802 803 803 804 806 807 808 810 811 813 814 815 817 818 819 820 822 823 824 825 826 827 829 830 831 832 833 834 836 836 837 837 838 839 840 840 841 842 843 844 844 845 846 847 847 848 849 849 849 849 849 849 849 848 848 847 847
808 812 812 818 824 824 832 835 831 830 819 811 812 812 812 810 810 812 814 814 814 811 810 809 806 813 813 806 808 800 794 796 794 796 796 796 798 799 800 801 802 803 804 804 805 806 808 809 810 812 813 815 816 817 819 820 821 822 824 825 826 827 828 829 830 831 832 834 835 836 836 837 837 838 839 840 840 841 842 843 844 845 845 846 847 848 848 849 849 849 849 849 849 848 847 847 847
808 812 815 822 830 832 835 835 829 824 817 812 811 810 809 808 809 811 814 813 812 811 810 808 807 814 812 806 808 799 795 796 795 796 795 797 797 798 800 800 801 802 804 804 805 806 807 809 810 811 812 813 815 816 817 819 820 821 823 824 825 827 827 828 829 831 831 832 833 834 835 836 837 838 838 839 840 841 842 843 844 844 845 846 846 847 848 848 848 848 848 849 848 847 847 847 847
810 813 818 825 832 837 838 835 830 821 817 814 812 811 808 808 809 811 813 813 811 810 810 807 807 812 811 809 806 798 797 796 796 797 796 797 797 798 799 800 802 801 803 804 804 805 806 808 808 810 811 812 813 814 816 817 819 820 821 823 825 826 827 828 829 830 831 832 832 833 834 835 836 837 838 838 839 840 841 842 843 844 844 845 846 847 847 847 847 847 848 848 847 847 847 847 847
816 816 818 828 836 840 840 836 830 823 818 815 813 811 808 807 809 811 813 813 810 811 810 809 811 811 810 810 804 797 796 796 796 796 796 797 797 798 798 799 801 801 803 803 804 805 805 806 807 809 810 811 812 813 814 815 817 818 820 821 823 824 826 827 828 829 830 831 832 833 833 834 835 835 836 837 838 839 840 841 842 843 844 844 845 846 847 847 847 847 848 847 847 847 847 847 847
821 822 821 833 840 839 838 836 828 821 819 818 816 812 808 807 811 813 814 814 811 812 811 810 810 809 812 811 802 797 795 796 796 796 797 797 797 797 798 799 800 801 802 802 803 804 805 805 806 808 809 810 811 812 813 814 815 816 818 819 821 822 824 826 827 828 829 830 831 832 833 833 834 834 835 836 837 838 839 840 841 842 843 844 844 845 846 846 847 847 847 846 846 847 847 847 847
822 825 826 834 836 835 836 832 827 823 823 820 817 811 807 808 811 812 812 813 812 814 811 807 806 807 813 809 800 798 796 796 796 797 797 797 797 797 798 799 799 800 800 801 801 802 803 804 805 806 807 808 810 811 812 813 814 815 817 818 819 821 822 824 825 827 828 830 830 831 832 833 833 834 834 835 836 837 838 839 841 842 842 843 844 844 845 845 846 846 845 845 846 846 846 847 847
821 823 827 834 834 833 832 830 827 827 827 820 814 810 807 809 809 809 810 814 813 811 807 801 802 808 811 807 803 800 796 795 796 797 796 797 797 797 798 798 799 799 799 799 800 800 801 802 803 804 805 806 808 809 810 811 813 814 815 816 818 819 820 822 824 825 827 828 830 831 832 832 833 834 834 835 836 837 838 839 840 841 842 843 844 843 844 845 845 845 844 844 845 845 846 846 847
820 822 826 833 836 834 831 830 827 826 826 818 812 809 809 808 806 808 809 813 812 804 802 800 801 808 810 808 806 798 794 794 795 796 796 796 797 797 798 797 798 798 798 798 798 799 799 800 801 802 803 804 806 807 808 809 811 813 814 816 817 818 819 821 822 824 825 827 828 830 831 832 833 834 835 835 836 837 838 839 840 841 842 842 843 843 843 844 845 844 844 844 844 845 845 846 846
818 821 828 836 838 838 831 827 827 828 824 817 812 809 811 809 805 808 806 807 808 800 802 803 801 804 804 803 799 792 793 794 794 795 795 796 796 796 797 796 797 797 798 797 797 797 797 798 799 800 801 802 804 805 806 807 809 810 812 814 815 817 818 819 821 822 824 825 827 828 830 831 832 833 834 835 836 837 838 838 839 840 841 842 843 843 843 844 844 843 843 844 844 844 845 846 846
818 823 834 839 839 840 831 824 827 827 821 816 813 810 814 813 807 806 802 803 806 802 802 802 799 799 799 796 792 791 793 793 794 795 794 795 795 795 796 796 796 796 796 796 796 796 796 797 797 798 799 801 802 803 804 805 807 808 810 812 814 815 816 818 819 821 822 823 825 827 828 829 830 832 833 834 835 836 837 838 839 840 841 841 842 842 843 844 844 843 843 843 843 844 845 845 846
822 829 838 840 838 835 825 822 822 820 819 816 813 812 813 814 811 806 804 805 805 803 801 799 798 795 794 792 790 792 793 793 793 793 793 794 794 794 794 794 794 794 794 794 795 796 796 797 797 798 798 799 800 801 802 803 805 806 808 810 811 813 815 816 817 819 820 822 823 824 826 827 828 829 831 832 833 834 835 836 837 838 840 840 841 842 842 843 844 843 843 843 843 844 845 845 846
825 832 838 837 832 824 817 817 817 816 817 814 812 812 811 812 811 806 808 809 807 807 802 798 798 793 791 790 790 792 792 792 792 792 792 792 793 793 792 792 792 792 792 793 793 794 795 796 796 796 796 797 798 799 800 801 802 803 805 807 809 811 812 814 815 817 818 820 821 822 824 825 826 827 829 830 831 832 833 835 836 837 838 839 840 841 842 843 843 843 843 843 843 844 845 845 846
824 829 837 833 823 819 814 814 814 813 813 813 813 811 810 810 807 807 809 809 807 809 804 800 799 792 789 789 789 790 790 791 791 791 791 790 790 790 790 790 789 789 789 790 791 792 793 794 794 795 795 796 796 797 798 799 799 801 803 804 806 808 810 811 813 814 816 817 819 820 822 823 825 826 827 828 829 831 832 833 834 835 837 838 839 840 841 842 843 843 842 842 843 844 845 845 845
824 827 832 825 819 820 815 811 812 811 810 812 813 812 812 808 806 807 808 811 809 805 801 798 796 791 788 787 786 788 789 789 790 791 790 789 789 788 788 787 787 786 786 788 789 790 790 791 792 792 793 794 795 795 796 797 798 799 800 802 804 805 807 808 810 811 813 815 816 818 820 822 823 824 826 827 828 829 830 831 832 834 835 836 837 838 840 841 841 842 841 841 842 843 844 845 845
823 823 823 818 818 821 814 810 812 810 810 811 812 812 810 807 807 807 808 813 807 798 795 793 791 788 787 786 785 786 787 788 788 789 788 787 786 786 785 785 785 785 785 785 785 786 787 788 788 789 791 792 793 794 795 796 796 797 798 800 801 803 804 806 808 809 811 813 814 816 818 820 821 823 824 825 827 828 829 830 831 832 833 834 835 836 837 838 839 840 840 841 842 842 843 844 844
823 822 818 816 817 818 814 811 812 811 811 811 811 809 807 809 809 806 807 807 798 791 791 790 787 785 785 785 786 786 785 786 786 786 785 784 783 783 782 782 783 783 783 783 783 784 784 785 786 787 789 790 791 792 793 795 796 797 797 799 800 801 802 804 805 807 809 811 813 815 816 818 819 821 822 823 824 825 827 828 829 830 831 832 833 834 835 836 837 838 838 840 841 841 842 843 843
822 823 818 816 815 815 813 812 812 811 811 810 808 807 807 810 809 805 804 798 791 789 788 788 785 782 784 785 785 785 784 784 784 783 782 781 780 780 780 780 780 781 781 782 782 782 783 784 785 786 788 789 790 791 792 793 795 796 797 798 799 800 802 802 804 805 807 809 811 813 815 816 818 819 820 821 822 823 824 825 827 828 829 830 831 833 833 834 835 836 837 838 839 840 841 841 842
821 821 818 816 815 814 812 812 811 809 809 807 807 808 807 807 807 806 801 794 788 786 786 786 785 783 784 785 785 784 784 783 782 783 783 782 780 780 781 780 780 780 780 781 781 781 782 783 784 785 786 788 789 790 791 792 794 795 796 798 799 800 801 802 804 805 807 808 810 811 813 814 816 817 818 819 820 821 822 823 824 826 827 828 830 831 831 832 833 834 835 837 838 838 839 840 841
819 818 818 817 816 814 812 811 808 808 807 806 808 808 805 804 806 806 797 791 786 784 786 785 786 786 785 784 784 784 784 785 787 787 787 784 783 783 784 783 782 782 782 781 781 781 781 782 783 784 785 787 788 789 791 792 793 794 796 797 798 799 800 802 803 805 806 808 809 810 811 813 814 815 817 818 819 819 820 821 822 824 825 826 827 828 829 830 831 832 833 835 836 837 838 839 840
818 818 818 816 816 813 810 810 806 806 806 805 809 807 803 804 808 806 794 787 786 785 787 785 786 787 786 784 785 787 789 792 793 790 788 787 787 788 788 786 785 784 783 782 782 782 782 782 783 784 785 786 787 788 789 791 792 793 795 796 798 799 800 802 803 804 805 807 808 810 811 812 813 814 815 816 817 818 819 820 821 822 823 824 825 826 827 828 829 830 831 833 834 835 837 838 839
817 817 818 815 815 813 809 809 805 805 805 801 805 806 802 805 809 803 792 787 787 788 788 787 788 788 786 785 788 793 795 797 795 791 792 793 793 793 791 789 788 786 784 784 783 782 782 782 783 783 784 785 786 787 788 790 791 792 794 795 797 798 800 801 802 804 805 806 807 809 810 811 812 812 813 814 815 816 817 818 819 820 821 823 824 825 826 827 828 829 830 832 833 834 836 837 838
816 816 821 818 818 816 807 805 803 803 804 796 801 810 806 805 804 796 790 789 788 787 787 788 789 787 785 787 793 797 799 799 797 796 799 798 798 796 794 793 791 788 787 786 784 783 782 782 783 783 784 784 785 786 787 789 790 792 793 794 796 798 799 801 802 803 804 805 807 808 810 811 812 812 813 814 815 815 816 817 818 819 820 822 823 824 825 826 827 828 830 831 832 833 834 835 836
816 817 822 822 826 820 803 801 801 800 804 795 801 818 811 799 797 792 789 790 789 787 786 788 789 786 787 793 799 800 801 801 800 802 802 800 799 797 795 794 792 790 789 788 786 784 783 783 783 784 784 784 785 786 787 788 790 791 792 794 795 797 798 800 801 802 803 805 806 807 808 810 811 812 812 813 815 815 816 817 818 819 820 821 822 824 825 825 826 827 828 830 831 832 833 834 835
818 820 822 826 833 823 800 799 801 800 804 796 800 819 812 795 793 791 788 788 790 790 788 788 788 788 793 799 801 803 804 805 805 805 803 801 800 798 797 795 792 791 789 788 788 787 785 784 784 785 785 785 785 786 787 788 790 791 792 793 795 796 797 799 800 802 803 804 805 806 807 808 810 811 812 813 814 815 816 817 818 819 820 821 822 823 824 824 825 826 827 828 830 831 832 833 834
819 825 828 827 831 823 804 798 799 800 802 799 803 815 812 799 791 788 787 787 788 791 790 789 791 795 800 802 804 806 807 808 808 806 804 803 801 799 798 796 794 791 789 789 789 788 787 786 786 786 786 786 786 787 788 789 790 791 792 793 794 796 797 798 800 801 802 803 804 805 806 807 809 810 810 811 813 814 815 816 817 819 820 821 822 823 824 824 825 826 826 827 828 829 830 831 832
823 827 830 827 827 825 813 801 796 798 801 802 805 810 809 801 791 785 785 786 788 791 790 791 798 802 804 806 807 808 808 807 807 806 806 804 802 801 800 798 797 794 791 790 790 790 789 788 787 787 787 787 788 788 789 790 790 791 792 793 794 795 797 798 799 800 802 802 803 804 805 807 808 809 809 810 812 813 814 816 817 818 820 820 821 822 823 824 825 825 826 827 827 828 829 829 830
827 827 829 825 823 823 818 807 799 798 801 803 805 808 806 799 792 787 782 784 788 791 791 796 804 807 807 809 809 809 809 808 808 809 808 806 805 803 801 800 799 797 794 792 791 792 791 791 790 789 789 789 789 790 790 790 791 792 792 793 794 795 797 798 799 800 801 802 803 804 805 806 807 808 809 809 811 812 813 815 816 817 818 819 820 821 822 823 824 825 826 826 827 828 828 828 829
826 826 826 824 821 820 818 811 802 799 801 803 806 808 807 800 796 791 783 782 787 790 795 802 806 808 810 811 811 812 811 811 813 812 810 809 807 805 803 802 801 799 797 794 793 792 793 793 792 791 791 790 791 790 790 791 791 792 793 794 795 796 797 798 799 800 800 801 802 803 805 805 806 807 808 809 810 811 812 813 815 816 817 818 818 819 820 821 822 824 825 825 826 827 827 828 829
821 821 822 823 823 820 814 807 799 798 803 805 805 806 806 803 798 793 785 782 787 791 798 805 807 809 811 812 813 814 814 814 816 814 811 810 809 808 806 804 803 801 799 797 795 794 794 795 795 794 794 793 792 791 791 791 792 793 793 794 795 796 797 798 799 800 801 802 802 803 804 805 806 807 807 808 809 810 811 812 813 814 815 815 816 817 818 818 820 821 822 823 824 825 826 827 828
818 820 821 822 823 820 811 804 798 796 803 804 801 804 804 801 796 791 786 785 788 793 801 807 809 810 812 813 815 815 816 817 817 815 812 810 810 810 808 806 804 802 801 799 797 797 797 797 797 797 798 797 795 794 793 793 794 794 795 795 796 797 798 799 800 801 801 802 803 804 805 806 807 807 808 808 809 809 810 810 811 812 813 814 814 815 816 817 818 819 820 822 823 823 824 825 826
818 820 821 821 822 818 809 804 799 796 805 805 800 804 804 798 794 787 784 788 792 796 803 808 810 812 814 814 816 817 817 818 817 816 814 812 812 811 809 807 805 803 803 802 801 801 800 800 800 800 801 800 798 797 795 794 796 797 798 798 799 799 800 800 801 801 802 802 803 804 805 806 807 808 809 809 809 809 809 810 810 811 812 812 813 814 815 816 817 818 819 820 821 821 821 822 822
817 819 821 823 820 816 810 804 800 799 805 806 802 805 804 798 792 787 787 794 800 802 804 809 811 813 815 816 818 818 819 819 818 818 817 816 815 813 810 808 807 807 806 805 804 804 803 802 803 803 803 802 801 799 797 796 797 798 799 800 801 802 802 803 803 803 803 804 804 805 805 806 807 808 808 809 809 809 810 810 810 811 811 811 812 813 814 815 815 816 817 818 819 819 820 820 819
816 817 820 821 816 819 817 807 803 802 803 804 804 806 806 800 792 793 799 801 805 809 808 811 813 814 817 818 819 819 819 820 820 820 821 820 819 816 814 812 811 810 809 808 808 807 807 806 806 806 806 805 803 801 799 798 798 798 800 801 802 803 804 805 805 805 805 805 806 806 806 806 807 807 808 809 809 810 810 810 810 811 811 811 812 812 813 813 814 814 815 816 817 817 818 817 817
816 813 815 815 812 816 817 810 806 804 803 801 804 810 808 799 792 798 807 806 807 812 812 815 817 818 819 819 820 821 821 822 822 823 824 823 822 820 817 816 814 812 811 811 811 810 810 809 809 809 809 808 806 804 802 800 798 799 800 802 803 804 805 806 806 807 807 807 807 807 807 807 807 808 808 808 808 809 810 810 810 810 811 811 811 812 812 813 813 813 814 814 815 815 815 815 815
816 810 808 808 808 811 812 812 811 813 813 805 806 817 813 797 792 797 803 806 809 813 815 819 821 821 822 822 823 824 824 824 824 825 826 825 824 822 820 818 817 815 814 814 814 814 813 812 812 812 812 812 809 806 804 802 800 799 801 803 805 806 807 808 808 809 809 809 809 809 809 809 809 809 808 808 808 809 809 809 810 810 810 810 811 811 812 812 812 812 813 813 813 813 814 814 813
819 810 804 805 807 810 812 811 814 819 820 810 808 819 819 803 794 791 790 798 808 814 817 821 823 824 824 825 826 827 827 826 825 827 827 827 825 824 822 821 820 819 819 818 817 817 816 815 814 814 815 815 813 810 807 803 801 800 802 805 807 808 809 810 810 810 810 810 810 810 810 810 810 810 809 809 809 809 809 809 809 809 810 810 810 810 810 811 811 811 812 812 812 812 812 811 811
818 808 806 807 806 810 810 810 815 817 818 816 811 815 822 814 800 786 780 792 808 815 820 823 825 827 827 828 829 829 830 828 827 827 826 827 826 826 826 826 825 823 822 821 820 819 818 817 816 816 817 817 816 814 810 805 802 802 804 806 808 809 810 811 811 811 810 810 810 810 810 810 810 810 810 810 810 810 809 809 809 809 809 809 809 809 809 810 810 810 810 810 810 811 810 810 809
812 808 809 808 807 810 810 812 818 819 822 826 817 815 822 815 800 789 784 794 808 815 820 825 827 828 829 830 831 830 830 830 829 827 826 826 827 829 830 829 828 826 824 823 822 821 820 819 819 818 817 818 818 818 813 807 804 804 806 808 809 810 811 811 811 811 811 810 810 810 810 810 810 810 810 811 810 810 810 809 809 809 809 809 809 809 809 809 809 808 808 808 808 808 808 808 808
809 809 810 809 810 813 815 819 822 824 829 828 818 816 820 811 794 790 790 792 801 812 820 824 826 828 829 831 833 832 830 830 830 829 828 828 829 830 832 831 830 828 826 825 823 823 822 821 820 819 819 820 821 821 816 809 806 806 808 810 811 812 812 812 812 811 811 811 811 810 810 810 810 810 810 810 810 810 810 809 809 809 808 808 808 808 808 808 807 807 807 807 807 806 806 806 806
809 809 810 812 816 818 821 824 824 831 831 820 813 810 815 813 794 786 790 787 790 806 819 824 826 828 830 832 833 834 833 831 831 831 831 831 830 831 832 832 831 830 828 826 825 824 824 823 823 822 823 823 824 823 818 812 809 809 811 813 814 814 814 813 812 812 812 812 811 811 811 810 810 810 810 810 810 809 809 809 809 809 808 808 808 808 807 806 806 806 805 805 805 804 804 804 804
809 811 813 817 821 822 828 829 831 838 828 811 810 810 815 818 796 785 795 792 787 797 810 820 826 829 832 833 834 835 834 833 833 833 833 832 832 831 832 833 833 832 829 827 826 826 826 826 825 825 825 826 826 823 819 815 812 812 814 816 817 817 816 815 814 815 814 813 813 813 812 811 810 810 810 810 809 809 808 808 807 808 808 807 807 807 806 805 805 804 804 803 803 802 802 802 801
811 814 819 827 831 830 832 835 837 837 822 807 807 810 816 810 793 793 805 803 796 798 807 818 824 829 832 833 835 835 835 835 834 834 834 834 833 832 832 833 834 834 832 829 828 828 828 828 827 827 827 828 826 824 820 817 814 814 817 819 820 820 819 818 817 817 816 815 815 814 813 813 812 811 811 810 809 809 808 807 807 807 807 806 806 805 805 804 803 802 802 801 801 801 800 800 799
815 814 819 829 833 833 832 831 834 830 816 806 804 808 810 797 794 810 817 813 809 808 814 821 824 829 832 833 834 835 835 835 835 835 835 835 834 833 833 835 837 837 834 831 830 831 831 830 830 829 829 828 827 824 822 819 817 817 819 821 822 822 821 820 820 819 818 817 816 816 815 815 814 813 812 811 810 809 808 808 807 806 805 805 804 803 803 802 801 800 800 800 799 799 799 798 797
814 811 814 819 817 820 823 819 821 821 812 806 806 806 799 790 803 822 823 819 819 818 821 825 827 830 832 832 834 834 835 835 834 834 834 834 834 834 835 837 838 837 834 832 832 833 833 832 832 830 829 829 827 825 822 820 820 821 822 823 824 824 823 822 822 821 820 819 818 818 817 816 816 815 814 813 812 810 809 807 806 805 804 803 802 801 801 800 799 798 798 798 797 797 797 796 795
813 810 813 815 807 806 813 813 812 815 815 810 804 799 797 804 819 827 823 823 823 824 827 828 829 832 832 833 833 832 833 833 833 834 834 834 835 835 836 838 839 837 834 833 834 835 835 834 833 831 830 829 827 825 823 822 823 824 825 826 826 827 826 824 823 822 821 821 820 819 818 818 818 817 816 814 813 811 810 808 807 805 804 803 801 800 799 798 797 797 796 796 795 795 795 794 793
809 812 810 809 805 803 811 815 811 814 820 812 798 795 802 812 821 825 825 826 827 828 829 829 831 832 832 832 832 832 832 832 833 833 833 834 835 835 837 838 837 835 834 834 835 835 834 832 832 831 829 828 827 826 825 825 826 826 827 828 829 829 827 825 824 823 823 822 821 820 820 819 818 817 816 815 814 812 811 809 807 805 804 802 800 799 798 796 796 795 794 794 793 793 792 791 791
804 810 805 801 805 805 809 819 818 818 822 812 796 797 801 800 808 824 828 826 829 831 830 831 832 831 832 832 831 831 831 831 832 832 833 834 835 836 836 836 836 835 834 834 834 833 832 832 831 830 830 829 829 828 828 829 829 829 830 830 830 830 828 826 825 824 824 823 822 821 821 820 819 818 817 816 815 813 811 810 808 806 804 802 800 798 797 795 794 793 793 792 791 791 790 789 788
801 804 801 803 811 811 810 818 822 821 821 814 800 798 797 792 800 819 823 821 827 830 830 832 831 831 831 830 831 831 831 832 832 832 833 834 834 835 835 835 834 834 834 833 832 832 832 832 832 831 831 831 831 831 831 831 831 831 831 831 830 830 828 827 826 825 824 823 823 822 821 821 820 819 817 816 815 813 812 810 808 807 805 803 801 799 796 795 793 792 790 790 789 789 788 786 786
802 803 803 805 810 812 811 812 814 815 817 815 807 800 795 793 800 807 809 815 823 827 829 831 830 830 830 829 830 830 830 831 831 832 833 833 833 833 833 833 833 832 832 831 832 832 832 833 833 832 833 833 832 832 832 832 831 831 831 831 830 830 828 827 826 825 824 823 822 822 821 821 820 819 817 816 814 813 812 810 809 807 805 803 801 799 797 794 792 791 789 788 787 786 785 784 783
804 806 808 808 808 809 811 809 806 810 815 814 812 806 794 797 807 803 800 810 819 822 826 828 828 829 829 828 828 828 829 829 830 831 831 831 832 832 831 831 831 831 831 831 832 833 833 833 833 833 833 833 833 833 832 832 832 831 831 830 830 829 828 827 826 825 824 822 822 821 820 820 819 818 816 815 814 812 811 809 808 807 805 803 801 798 796 794 792 790 788 787 785 784 783 782 781
805 807 808 808 809 811 816 816 806 805 810 808 810 807 795 800 814 809 804 811 816 820 823 825 826 825 824 826 825 826 826 827 828 829 829 829 830 830 830 830 830 830 831 832 833 833 834 834 834 834 834 834 834 833 833 832 832 831 831 830 830 829 828 826 825 824 823 821 820 820 819 818 816 816 814 813 812 810 809 807 806 805 803 802 800 798 795 793 791 789 788 786 785 783 782 780 779